Weather History for Robstown, TX

Change the Weather History Date:

Tuesday, January 29, 2013

  Actual Average (KCRP) Record (KCRP)
Temperature  
Mean Temperature 80 °F 58 °F  
Max Temperature 91 °F 68 °F 91 °F (2013)
Min Temperature 68 °F 48 °F 25 °F (1951)
Degree Days  
Heating Degree Days 0 8  
Month to date heating degree days 255  
Since 1 July heating degree days 606  
Cooling Degree Days 14 1  
Month to date cooling degree days 29  
Year to date cooling degree days 29  
Growing Degree Days 30 (Base 50)    
Moisture  
Dew Point 64 °F    
Average Humidity 66    
Maximum Humidity 92    
Minimum Humidity 33    
Precipitation  
Precipitation 0.00 in 0.05 in 0.54 in (1979)
Month to date precipitation 1.45  
Year to date precipitation 1.45  
Snow  
Snow 0.00 in - - ()
Month to date snowfall  
Since 1 July snowfall  
Snow Depth -    
Sea Level Pressure  
Sea Level Pressure 29.73 in    
Wind  
Wind Speed 19 mph (SSE)    
Max Wind Speed 34 mph    
Max Gust Speed 41 mph    
Visibility 9 miles    
Events      
T = Trace of Precipitation, MM = Missing Value Source: NWS Daily Summary

Daily Weather History Graph

Daily Weather History Graph

Search for Another Location

Airport:

Trip Planner

Search our weather history database for the weather conditions in past years. The results will help you decide how hot, cold, wet, or windy it might be!

Date:

Astronomy

Jan. 29, 2013 Rise Set
Actual Time 7:18 AM CST 6:09 PM CST
Civil Twilight 6:54 AM CST 6:33 PM CST
Nautical Twilight 6:26 AM CST 7:02 PM CST
Astronomical Twilight 5:58 AM CST 7:29 PM CST
Moon 8:46 PM CST (1/29) 8:34 AM CST (1/29)
Length of Visible Light 11h 39m
Length of Day
10h 50m
Waning Gibbous, 93% of the Moon is Illuminated
Jan 29
Waning Gibbous
Feb 3
Last Quarter
Feb 10
New
Feb 17
First Quarter
Feb 25
Full

Hourly Weather History & Observations

Time (CST) Temp. Heat Index Dew Point Humidity Pressure Visibility Wind Dir Wind Speed Gust Speed Precip Events Conditions
12:15 AM 71.6 °F - 68.9 °F 91% 29.91 in 7.0 mi SSE 16.1 mph - N/A   Clear
12:35 AM 71.6 °F - 68.7 °F 91% 29.89 in 7.0 mi SSE 16.1 mph - N/A   Scattered Clouds
12:55 AM 71.8 °F - 68.9 °F 91% 29.88 in 7.0 mi SSE 17.3 mph - N/A   Clear
1:15 AM 71.6 °F - 68.7 °F 91% 29.87 in 7.0 mi SSE 17.3 mph 23.0 mph N/A   Scattered Clouds
1:35 AM 71.2 °F - 68.5 °F 91% 29.86 in 7.0 mi SE 17.3 mph - N/A   Scattered Clouds
1:55 AM 71.1 °F - 68.5 °F 92% 29.83 in 7.0 mi SE 20.7 mph 26.5 mph N/A   Clear
2:15 AM 71.6 °F - 68.9 °F 91% 29.84 in 7.0 mi SSE 19.6 mph 26.5 mph N/A   Scattered Clouds
2:35 AM 72.0 °F - 68.9 °F 90% 29.84 in 7.0 mi SSE 21.9 mph 27.6 mph N/A   Mostly Cloudy
2:55 AM 72.0 °F - 68.9 °F 90% 29.84 in 10.0 mi SSE 18.4 mph 25.3 mph N/A   Overcast
3:15 AM 72.1 °F - 68.5 °F 88% 29.83 in 10.0 mi SSE 18.4 mph - N/A   Overcast
3:35 AM 72.5 °F - 68.9 °F 88% 29.83 in 10.0 mi SSE 15.0 mph 24.2 mph N/A   Overcast
3:55 AM 72.1 °F - 68.9 °F 89% 29.83 in 10.0 mi SSE 17.3 mph 23.0 mph N/A   Overcast
4:15 AM 72.5 °F - 68.9 °F 88% 29.83 in 10.0 mi SSE 12.7 mph - N/A   Overcast
4:35 AM 72.5 °F - 68.5 °F 87% 29.82 in 10.0 mi SSE 16.1 mph - N/A   Overcast
4:55 AM 72.1 °F - 68.9 °F 89% 29.81 in 10.0 mi SSE 17.3 mph - N/A   Overcast
5:15 AM 72.1 °F - 68.9 °F 89% 29.80 in 10.0 mi SSE 17.3 mph 24.2 mph N/A   Mostly Cloudy
5:35 AM 71.6 °F - 68.5 °F 90% 29.80 in 7.0 mi SSE 17.3 mph - N/A   Mostly Cloudy
5:55 AM 71.6 °F - 68.5 °F 90% 29.81 in 7.0 mi SSE 16.1 mph 21.9 mph N/A   Mostly Cloudy
6:15 AM 71.1 °F - 68.2 °F 91% 29.80 in 7.0 mi SSE 17.3 mph - N/A   Overcast
6:35 AM 71.2 °F - 68.4 °F 91% 29.80 in 7.0 mi SSE 17.3 mph - N/A   Overcast
6:55 AM 71.1 °F - 68.2 °F 91% 29.80 in 7.0 mi SE 18.4 mph 21.9 mph N/A   Overcast
7:15 AM 70.9 °F - 68.2 °F 91% 29.80 in 7.0 mi SSE 17.3 mph - N/A   Scattered Clouds
7:35 AM 70.9 °F - 68.2 °F 91% 29.79 in 7.0 mi SSE 17.3 mph 21.9 mph N/A   Scattered Clouds
7:55 AM 71.1 °F - 68.2 °F 91% 29.79 in 7.0 mi SSE 18.4 mph - N/A   Scattered Clouds
8:15 AM 72.1 °F - 68.4 °F 88% 29.79 in 7.0 mi SSE 18.4 mph - N/A   Clear
8:35 AM 73.4 °F - 68.9 °F 86% 29.79 in 7.0 mi SSE 17.3 mph - N/A   Clear
8:55 AM 75.2 °F - 68.9 °F 81% 29.78 in 10.0 mi SSE 21.9 mph - N/A   Scattered Clouds
9:15 AM 76.1 °F - 68.4 °F 77% 29.78 in 10.0 mi South 24.2 mph 31.1 mph N/A   Mostly Cloudy
9:35 AM 77.9 °F - 68.0 °F 71% 29.79 in 10.0 mi South 28.8 mph 33.4 mph N/A   Mostly Cloudy
9:55 AM 79.3 °F - 68.0 °F 68% 29.78 in 10.0 mi South 31.1 mph 38.0 mph N/A   Scattered Clouds
10:15 AM 80.4 °F 82.8 °F 67.3 °F 64% 29.78 in 10.0 mi South 34.5 mph 40.3 mph N/A   Scattered Clouds
10:35 AM 81.3 °F 83.8 °F 67.3 °F 62% 29.76 in 10.0 mi South 27.6 mph 38.0 mph N/A   Scattered Clouds
10:55 AM 82.9 °F 85.6 °F 67.1 °F 59% 29.76 in 10.0 mi South 33.4 mph 39.1 mph N/A   Scattered Clouds
11:15 AM 83.3 °F 85.7 °F 66.6 °F 57% 29.74 in 10.0 mi South 29.9 mph 40.3 mph N/A   Clear
11:35 AM 83.8 °F 86.3 °F 66.4 °F 56% 29.74 in 10.0 mi South 32.2 mph 39.1 mph N/A   Clear
11:55 AM 84.2 °F 86.3 °F 65.8 °F 54% 29.72 in 10.0 mi South 32.2 mph 41.4 mph N/A   Clear
12:15 PM 85.8 °F 88.2 °F 66.2 °F 52% 29.71 in 10.0 mi South 33.4 mph 39.1 mph N/A   Clear
12:35 PM 87.4 °F 89.8 °F 66.0 °F 49% 29.69 in 10.0 mi South 33.4 mph 38.0 mph N/A   Clear
12:55 PM 87.3 °F 89.2 °F 65.3 °F 48% 29.68 in 10.0 mi South 28.8 mph 38.0 mph N/A   Clear
1:15 PM 87.8 °F 89.7 °F 65.1 °F 47% 29.66 in 10.0 mi South 26.5 mph 29.9 mph N/A   Clear
1:35 PM 88.9 °F 90.7 °F 64.8 °F 45% 29.64 in 10.0 mi South 25.3 mph 33.4 mph N/A   Clear
1:55 PM 88.9 °F 90.7 °F 64.9 °F 45% 29.63 in 10.0 mi South 24.2 mph 32.2 mph N/A   Clear
2:15 PM 89.4 °F 90.8 °F 64.4 °F 43% 29.62 in 10.0 mi South 27.6 mph 34.5 mph N/A   Clear
2:35 PM 90.9 °F 92.3 °F 64.4 °F 41% 29.61 in 10.0 mi South 25.3 mph 31.1 mph N/A   Clear
2:55 PM 90.9 °F 92.3 °F 63.9 °F 41% 29.60 in 10.0 mi South 21.9 mph 31.1 mph N/A   Clear
3:15 PM 90.5 °F 91.1 °F 62.6 °F 39% 29.60 in 10.0 mi SSW 20.7 mph 26.5 mph N/A   Clear
3:35 PM 91.4 °F 91.0 °F 60.4 °F 35% 29.59 in 10.0 mi SSW 18.4 mph 25.3 mph N/A   Clear
3:55 PM 91.0 °F 90.2 °F 58.6 °F 34% 29.59 in 10.0 mi South 21.9 mph 25.3 mph N/A   Clear
4:15 PM 90.5 °F 89.3 °F 57.9 °F 33% 29.58 in 10.0 mi South 17.3 mph 24.2 mph N/A   Clear
4:35 PM 89.6 °F 89.2 °F 60.3 °F 37% 29.58 in 10.0 mi South 17.3 mph 26.5 mph N/A   Clear
4:55 PM 86.0 °F 88.2 °F 66.2 °F 51% 29.58 in 10.0 mi SSE 17.3 mph - N/A   Clear
5:15 PM 83.7 °F 86.2 °F 66.7 °F 57% 29.58 in 10.0 mi SSE 18.4 mph 23.0 mph N/A   Clear
5:35 PM 82.4 °F 84.8 °F 66.6 °F 59% 29.58 in 10.0 mi SSE 16.1 mph - N/A   Clear
5:55 PM 82.4 °F 84.6 °F 66.4 °F 58% 29.59 in 10.0 mi SSE 17.3 mph - N/A   Clear
6:15 PM 79.9 °F - 66.9 °F 64% 29.59 in 10.0 mi SSE 15.0 mph - N/A   Clear
6:35 PM 78.8 °F - 67.1 °F 67% 29.60 in 10.0 mi SSE 13.8 mph - N/A   Clear
6:55 PM 77.9 °F - 66.9 °F 69% 29.60 in 10.0 mi SSE 15.0 mph - N/A   Clear
7:15 PM 77.4 °F - 66.7 °F 70% 29.61 in 10.0 mi SSE 16.1 mph - N/A   Clear
7:35 PM 76.6 °F - 66.6 °F 71% 29.61 in 10.0 mi SSE 15.0 mph - N/A   Clear
7:55 PM 76.5 °F - 66.7 °F 72% 29.61 in 10.0 mi South 16.1 mph - N/A   Clear
8:15 PM 77.5 °F - 67.1 °F 70% 29.61 in 10.0 mi South 15.0 mph - N/A   Clear
8:35 PM 77.0 °F - 67.1 °F 71% 29.61 in 10.0 mi South 19.6 mph 23.0 mph N/A   Clear
8:55 PM 77.0 °F - 67.1 °F 71% 29.62 in 10.0 mi South 16.1 mph - N/A   Clear
9:15 PM 76.6 °F - 67.1 °F 72% 29.69 in 10.0 mi West 20.7 mph 25.3 mph N/A   Scattered Clouds
9:35 PM 77.0 °F - 50.5 °F 39% 29.71 in 10.0 mi NW 23.0 mph 27.6 mph N/A   Mostly Cloudy
9:55 PM 72.5 °F - 43.7 °F 36% 29.72 in 10.0 mi NNW 18.4 mph 23.0 mph N/A   Mostly Cloudy
10:15 PM 71.6 °F - 40.8 °F 33% 29.72 in 10.0 mi North 18.4 mph 23.0 mph N/A   Clear
10:35 PM 70.2 °F - 40.3 °F 34% 29.74 in 10.0 mi North 10.4 mph - N/A   Clear
10:55 PM 69.4 °F - 39.7 °F 34% 29.75 in 10.0 mi North 12.7 mph - N/A   Scattered Clouds
11:15 PM 68.9 °F - 39.7 °F 35% 29.75 in 10.0 mi North 11.5 mph 15.0 mph N/A   Scattered Clouds
11:35 PM 68.0 °F - 39.9 °F 36% 29.76 in 10.0 mi North 12.7 mph - N/A   Scattered Clouds
11:55 PM 68.7 °F - 39.4 °F 34% 29.77 in 10.0 mi North 13.8 mph 18.4 mph N/A   Overcast